Theta_e
327 322 316 315 318 322 328 328 326 327 328 328 327 323 320 319 321 323 327 330 329 327 326 328 327 322 319 317 315 314 314 314 313 312 310 309 308 311 315 318 318 317 317 316 316 316 315 315 316 316 315 316 315 317 320 323 326 330 331 331 331 330
330 326 319 316 317 319 324 325 326 328 327 325 323 321 321 320 322 326 329 329 327 323 319 319 322 322 320 318 317 316 315 315 315 315 314 312 310 309 310 313 316 317 318 317 316 318 321 321 321 322 321 321 320 319 319 321 325 329 331 331 331 331
333 331 326 320 316 315 318 322 325 327 326 325 326 327 329 328 328 331 330 323 321 321 319 320 323 324 324 326 327 326 322 319 317 316 316 317 317 315 313 311 312 313 313 316 319 323 327 328 328 329 330 329 327 326 327 327 325 326 330 331 331 332
337 336 332 324 317 315 316 321 326 327 326 329 331 332 336 336 333 331 325 319 320 325 325 327 331 331 331 332 332 332 330 327 323 319 319 319 320 323 324 323 321 316 312 316 326 329 329 330 330 332 333 332 331 331 331 331 328 327 331 332 332 333
339 338 333 325 318 316 318 324 328 326 327 333 335 334 337 336 332 325 320 322 327 331 331 332 334 333 334 333 331 333 332 331 330 328 326 323 321 325 329 331 331 329 323 323 328 330 330 330 329 331 332 330 331 333 332 333 332 331 332 333 333 333
339 336 333 325 318 317 321 327 329 328 329 334 335 335 335 334 330 322 321 328 333 334 334 334 334 334 334 332 331 333 332 332 332 332 331 330 328 326 329 332 332 333 333 330 329 329 331 332 330 330 330 328 330 331 332 333 334 334 333 333 333 333
337 334 333 328 323 323 325 327 327 328 330 332 333 334 334 333 329 323 326 332 333 334 334 335 334 334 334 333 332 332 331 332 332 332 332 333 333 330 330 332 332 333 333 332 330 329 330 331 331 332 331 331 331 331 331 332 333 333 333 332 333 332
336 334 333 331 331 332 332 331 330 331 332 334 335 335 334 332 327 326 331 334 333 335 335 335 335 334 334 334 333 332 331 332 332 333 332 334 334 333 333 333 333 333 332 332 332 332 331 331 332 332 332 333 332 332 332 332 332 332 331 331 332 332
336 336 334 333 334 336 336 335 335 335 335 335 336 336 335 332 330 331 334 334 334 335 334 334 334 334 334 334 333 332 332 333 333 332 332 334 334 334 334 333 333 333 333 332 333 333 332 331 332 332 333 333 333 333 333 333 332 332 332 332 332 333
335 336 334 334 335 336 336 335 335 335 336 335 335 336 335 334 335 335 335 335 334 333 334 334 334 334 334 335 335 334 333 333 333 332 333 334 334 333 333 333 334 334 333 333 333 333 332 332 332 333 333 333 333 333 333 332 332 332 332 333 333 333
334 335 334 334 336 335 334 333 332 333 332 332 333 336 336 336 338 336 335 335 334 333 334 334 334 334 336 336 335 335 334 333 333 333 332 333 332 332 332 333 334 334 333 333 334 334 333 333 332 332 333 333 333 332 333 332 331 332 333 332 332 332
334 334 334 335 336 334 332 332 331 331 330 330 333 336 337 337 337 336 336 335 334 334 334 334 334 335 336 335 333 333 333 333 333 333 332 332 332 332 332 333 333 333 333 333 333 334 334 333 332 332 333 333 333 333 334 333 332 333 333 333 333 333
332 331 333 334 332 331 332 333 333 334 333 333 334 335 336 337 336 336 336 335 335 334 333 333 333 334 335 334 333 333 333 332 332 332 332 332 332 332 332 333 333 333 333 333 333 334 333 333 333 333 333 333 333 333 333 333 332 332 333 333 333 332
330 332 333 333 332 333 334 334 334 334 333 333 334 333 333 335 336 336 336 336 335 334 333 333 332 332 333 333 332 332 332 332 332 332 333 333 332 332 332 332 332 332 333 333 332 332 332 332 332 333 333 333 332 332 331 331 330 330 330 331 331 331
332 334 334 335 335 336 336 336 335 333 332 333 335 334 332 332 333 335 336 336 335 335 335 334 333 332 332 332 333 332 332 332 332 333 332 332 332 332 331 331 331 332 332 331 331 331 332 333 333 333 332 332 331 330 328 328 328 329 329 330 331 331
334 335 335 336 336 336 337 336 335 334 334 334 335 334 333 334 333 333 333 335 336 335 335 335 335 334 334 334 333 333 332 332 332 332 331 331 330 330 330 330 330 330 330 330 331 331 332 333 333 332 331 330 328 327 326 328 329 329 330 331 331 332
335 336 337 337 336 336 336 335 334 334 335 335 334 332 333 333 333 332 331 333 336 336 336 336 335 334 335 333 332 333 332 332 333 332 332 332 331 331 331 330 330 330 330 330 331 331 331 331 330 329 329 328 326 326 327 328 329 330 331 331 332 332
336 336 336 336 336 336 335 335 333 333 334 334 331 330 331 331 332 333 332 333 336 336 336 336 334 333 333 332 333 334 333 333 333 333 332 332 332 332 331 331 330 330 330 330 331 331 330 329 328 328 327 326 324 325 327 329 330 331 332 332 332 331
336 335 335 336 335 334 333 334 333 332 332 330 328 329 330 329 331 333 333 335 336 335 335 335 334 333 333 333 334 334 333 333 333 332 332 332 331 331 330 330 330 330 330 331 331 331 330 329 327 327 326 324 325 326 327 330 331 331 332 333 333 332
335 335 335 335 334 332 330 332 331 329 329 329 330 331 332 331 330 331 334 336 335 334 335 335 335 334 333 333 333 334 334 333 333 332 331 331 330 330 329 330 330 330 330 330 331 330 329 327 325 324 324 324 325 325 328 330 331 333 333 333 332 332
335 335 334 332 331 330 329 329 327 326 329 331 330 329 330 330 330 332 335 336 335 335 335 335 335 334 334 334 333 333 333 333 332 331 331 330 330 330 330 330 330 330 330 329 329 328 327 326 324 321 320 321 322 324 329 331 331 333 332 331 331 331
335 334 332 330 329 330 329 328 328 329 330 330 328 326 327 330 332 334 335 335 335 335 334 334 334 333 334 334 333 332 332 333 332 331 331 330 330 330 330 329 328 329 329 327 326 325 324 322 321 320 318 316 316 321 328 332 333 333 328 328 331 330
333 332 330 331 331 330 327 328 332 331 330 330 329 329 330 332 335 335 334 333 333 333 333 333 333 333 333 333 333 332 332 331 331 331 330 329 328 327 327 326 324 324 323 321 321 320 320 319 319 319 318 318 318 319 321 325 330 330 324 323 327 328
333 330 328 331 333 330 327 329 331 330 332 332 331 332 333 334 334 334 333 331 330 330 331 330 330 331 331 332 332 331 330 330 330 328 326 324 322 320 319 319 318 317 314 314 314 314 316 317 317 317 317 318 320 322 321 319 319 320 319 318 320 322
333 330 329 331 333 330 328 328 329 330 332 333 332 333 332 332 332 331 331 330 329 329 327 327 328 328 328 329 329 329 329 328 326 323 320 317 315 314 314 313 313 312 312 312 311 311 312 313 316 318 318 318 319 320 320 319 317 315 316 315 316 316
332 330 330 330 329 330 330 329 330 331 332 331 331 331 330 331 331 331 329 328 327 327 326 325 325 325 325 325 325 324 323 321 318 315 314 313 312 311 311 311 311 310 310 310 309 309 309 309 311 313 316 317 318 318 318 318 317 315 313 312 312 311
331 329 328 327 326 329 330 331 332 331 331 331 331 331 331 331 331 330 328 327 326 325 325 324 323 322 322 321 319 317 316 314 312 312 311 311 310 310 310 310 310 309 309 309 308 307 306 306 306 306 310 313 314 314 315 315 312 311 311 308 307 306
331 330 330 329 329 330 331 332 333 332 332 332 332 332 331 331 330 329 328 327 325 324 324 322 320 319 317 315 314 312 312 311 311 311 310 310 309 309 309 309 308 307 306 305 304 303 302 302 302 302 304 306 307 308 310 309 307 307 308 306 303 303
333 333 332 331 332 333 333 334 334 334 333 333 332 332 331 330 329 328 327 327 324 321 320 319 316 315 313 312 312 311 311 310 310 309 309 309 308 308 307 306 304 303 302 302 301 301 300 300 300 301 303 306 308 309 309 306 305 308 309 308 307 305
334 333 333 333 333 333 333 333 334 333 333 333 332 331 330 329 327 327 325 325 322 317 315 314 312 312 311 311 310 310 310 309 309 308 307 307 306 305 304 302 301 300 300 300 300 299 299 299 299 301 305 308 309 310 309 306 306 309 309 308 307 304
333 333 333 333 332 332 331 331 331 331 331 330 330 329 328 327 326 325 323 321 318 314 312 312 311 310 310 310 309 309 308 308 307 305 304 303 302 302 301 300 300 299 299 299 299 299 298 299 299 302 306 308 309 310 308 305 305 306 307 304 304 303
332 332 332 331 330 330 329 329 329 329 329 328 328 327 326 324 323 322 321 318 314 312 311 311 310 309 308 308 307 307 306 305 303 302 301 300 300 300 299 299 299 299 299 299 299 298 298 298 298 302 306 307 307 306 303 302 303 304 305 304 303 302
331 331 330 329 329 329 328 328 328 328 327 326 326 325 324 323 321 321 320 316 311 310 310 309 308 307 306 306 305 304 303 301 300 300 299 299 299 299 298 298 298 298 298 298 298 298 298 298 298 301 305 305 303 300 301 303 304 305 305 303 301 300
331 330 330 329 329 329 328 328 327 326 326 325 324 323 322 322 321 320 319 316 311 309 309 308 307 306 304 303 302 300 300 300 299 299 299 299 299 298 298 298 298 298 297 297 297 297 297 298 299 300 300 299 298 299 302 303 303 304 303 300 299 300
330 329 329 330 329 329 328 327 326 325 324 324 323 323 322 321 320 319 319 316 310 308 307 305 304 303 301 300 299 299 299 299 299 299 298 298 298 298 297 297 297 297 297 297 297 297 297 298 301 299 297 296 297 300 302 300 300 301 299 297 297 299
330 329 329 329 329 328 327 326 325 324 323 322 322 321 321 320 319 319 317 313 308 306 305 302 301 300 299 299 299 299 299 299 298 298 298 298 297 297 297 297 298 299 299 298 296 296 297 298 301 302 299 297 296 298 299 297 297 298 297 297 296 297
329 329 329 328 327 326 326 325 324 322 321 321 320 320 319 318 317 316 313 309 306 304 301 300 299 298 298 298 298 298 298 298 298 298 298 297 297 297 297 298 299 299 299 299 297 296 296 298 303 304 301 297 296 296 297 296 296 296 296 296 296 296
Wind_Speed
17 16 16 16 17 18 17 16 15 14 13 11 10 11 10 10 10 10 9 7 6 4 4 4 5 6 6 6 7 7 6 7 8 8 8 7 5 4 2 2 2 2 2 3 4 6 5 5 5 5 4 2 0 1 1 1 2 2 2 5 8 11
17 16 16 16 17 17 16 16 15 15 14 13 13 13 12 11 10 8 6 6 5 4 5 6 6 5 5 6 7 7 6 6 6 7 8 8 7 6 4 2 1 1 1 1 2 3 4 5 5 5 4 4 4 4 4 3 3 3 3 5 7 10
16 14 15 15 16 15 15 15 15 15 15 15 14 13 12 10 8 6 5 5 5 5 6 6 5 5 4 5 6 6 5 5 5 6 7 8 8 8 7 5 2 0 1 1 0 0 1 2 3 5 6 6 7 8 7 5 2 1 3 7 9 12
15 13 13 15 15 15 15 15 15 15 15 15 13 11 10 8 7 6 6 6 5 4 5 4 4 3 3 4 5 5 4 4 4 4 4 6 8 8 9 9 8 5 2 1 1 3 2 2 2 4 7 8 9 10 9 9 7 5 5 9 12 14
13 12 12 14 15 15 16 15 15 14 14 13 11 10 9 7 7 6 8 6 5 4 3 2 2 2 3 3 3 3 2 4 3 3 3 3 5 6 8 8 8 7 6 4 4 5 6 7 6 8 10 10 9 9 9 10 10 8 9 11 12 14
13 12 10 13 14 15 16 15 15 13 12 10 8 7 6 6 5 6 7 4 4 4 3 1 0 1 2 2 3 3 2 4 2 1 3 3 3 3 5 5 5 6 6 5 5 6 6 8 10 11 13 12 11 11 9 8 7 7 10 11 11 12
13 13 11 12 14 15 14 12 11 11 9 7 5 4 4 4 4 5 5 3 3 3 2 2 1 0 1 2 3 3 2 3 2 2 3 3 3 3 3 2 3 4 3 3 4 5 5 7 9 11 13 13 12 13 12 10 9 10 12 13 15 15
12 12 11 13 15 14 12 9 8 8 7 4 2 2 4 4 4 5 4 3 3 3 1 1 1 0 1 2 3 2 2 3 1 2 2 2 2 1 2 3 4 3 3 4 4 5 6 7 7 9 11 12 13 13 13 13 13 14 15 16 17 18
14 11 10 13 13 12 10 8 8 6 5 4 5 5 7 5 3 5 3 3 4 2 1 0 1 1 2 2 2 2 2 2 1 2 1 1 1 1 2 3 3 3 4 6 6 7 8 8 9 10 11 12 13 13 13 14 14 14 15 16 17 17
18 15 13 13 12 12 11 11 11 9 7 8 9 9 10 7 4 4 2 3 3 2 1 1 2 2 3 3 3 2 2 2 2 2 1 2 2 1 2 3 4 4 5 7 7 9 10 10 11 12 12 12 13 12 12 14 15 13 13 15 16 17
19 18 18 16 14 14 13 15 15 14 11 10 11 12 12 8 5 4 3 2 2 2 1 1 1 1 2 4 2 1 1 1 1 1 1 1 1 1 1 2 3 4 4 5 5 6 7 9 10 11 12 13 14 15 15 15 15 14 14 16 17 18
20 21 20 17 16 15 13 14 14 13 12 11 10 10 9 6 4 3 2 2 2 3 3 2 2 3 3 3 3 2 1 1 1 1 1 2 2 2 2 2 3 4 5 5 4 4 6 8 9 10 11 12 13 15 15 16 17 16 16 18 20 21
21 22 19 17 17 15 14 14 12 10 9 10 9 6 5 4 2 2 3 2 2 4 5 4 4 4 3 3 4 3 3 3 2 1 1 2 2 2 3 3 3 4 5 5 6 7 7 8 9 10 10 12 13 14 14 15 17 17 17 19 21 22
22 20 17 17 17 15 15 14 12 11 9 8 7 5 4 2 1 2 3 4 3 4 5 6 4 4 3 2 2 3 4 3 3 2 2 2 2 2 3 4 4 4 5 7 8 8 9 10 10 11 11 12 13 13 14 15 15 15 15 16 18 18
19 17 15 16 16 15 15 15 13 12 11 9 6 5 5 3 2 2 1 4 4 4 5 6 5 4 2 3 4 4 3 2 2 3 4 3 3 3 4 5 5 5 6 7 8 7 8 9 10 11 11 11 12 12 13 14 14 14 13 14 14 15
17 15 16 15 15 16 16 14 12 12 13 11 9 9 8 5 4 3 3 1 4 5 5 7 6 5 4 3 3 3 3 3 3 3 4 4 5 4 4 5 6 7 7 7 7 7 7 8 10 11 11 10 11 12 12 11 11 11 11 11 12 13
17 16 15 14 14 16 15 14 13 12 12 12 12 11 10 7 4 4 2 3 5 6 5 6 6 6 6 5 3 1 1 2 2 3 3 4 5 5 6 6 7 8 8 8 8 8 8 9 10 10 10 11 11 10 9 8 9 9 9 9 10 11
18 16 15 14 14 14 15 16 15 14 12 12 13 11 10 8 5 5 5 3 4 4 4 4 5 6 6 5 4 3 2 2 2 2 4 4 5 6 7 8 8 8 9 8 8 9 10 11 11 11 11 11 10 9 7 6 6 9 10 11 11 12
18 17 15 14 15 15 15 16 17 16 14 13 12 11 10 9 8 7 7 4 3 3 4 3 4 5 5 5 5 4 4 4 4 4 5 6 6 7 8 9 9 9 8 8 8 10 12 12 12 12 12 11 9 7 6 4 5 6 8 10 11 13
18 17 16 16 17 16 15 16 16 15 14 14 12 12 11 10 9 8 6 5 5 5 4 4 4 5 5 5 6 5 5 6 6 6 7 8 8 9 10 10 9 9 8 7 9 11 14 14 14 13 12 10 7 7 6 4 4 4 5 7 9 11
18 18 17 17 18 17 16 16 16 15 16 15 14 13 11 9 7 6 6 7 7 7 6 6 6 6 6 7 7 7 6 6 7 8 9 9 9 10 11 11 11 11 9 9 10 13 15 16 16 14 11 9 7 5 3 4 4 4 1 4 5 7
19 20 19 17 17 17 16 15 15 16 16 16 13 10 9 7 5 5 7 8 9 9 9 8 8 8 8 9 8 8 7 7 8 8 9 10 10 11 13 13 12 11 11 11 11 13 15 15 15 15 13 13 11 4 3 3 5 5 2 5 3 5
20 20 19 18 16 16 16 15 14 14 14 13 11 8 7 6 5 7 9 9 10 11 11 10 9 9 9 9 9 9 8 8 8 9 10 11 11 12 12 12 11 9 9 9 9 11 12 12 14 13 13 13 12 9 6 6 8 6 8 8 5 7
20 20 19 18 17 16 16 15 14 14 12 10 9 8 7 6 7 8 9 9 10 10 10 9 9 9 9 10 11 10 9 9 10 10 10 8 7 7 7 7 6 7 7 5 5 6 7 9 11 11 11 10 8 9 11 12 13 12 12 10 9 10
21 20 19 19 17 17 17 16 15 15 13 11 10 8 6 7 7 7 8 9 10 10 9 8 8 9 10 10 11 11 10 10 9 7 5 3 2 2 3 4 4 6 7 7 7 6 7 7 8 9 9 8 5 7 10 16 20 18 14 13 13 13
21 20 19 18 16 16 16 16 14 13 12 11 11 8 6 6 5 5 7 9 10 10 8 7 7 8 9 8 8 7 7 6 4 2 1 1 0 1 2 3 4 6 7 8 9 8 8 7 7 6 5 5 4 5 10 15 17 18 20 18 15 15
20 19 18 17 16 15 15 15 13 12 11 10 9 7 5 4 4 7 9 10 9 7 5 4 4 5 5 5 5 5 5 4 2 2 2 1 1 2 4 5 6 7 8 8 9 9 9 8 7 6 5 4 3 2 5 10 12 16 21 21 19 17
20 19 18 18 17 15 15 15 14 13 12 10 7 6 5 5 7 9 11 11 7 5 3 4 5 6 5 5 6 5 5 3 2 3 2 2 2 3 5 6 6 7 8 9 9 9 10 10 9 9 9 7 7 7 7 10 13 14 16 21 24 20
20 20 19 19 17 16 14 14 14 13 11 10 7 6 5 6 8 10 12 11 5 3 4 6 6 6 6 6 5 4 3 3 3 3 2 2 2 4 4 5 5 6 7 8 9 9 9 10 11 11 11 11 11 11 12 13 16 16 16 18 23 25
22 21 20 18 16 16 14 13 11 10 8 7 6 5 6 7 9 11 12 10 4 6 7 8 7 6 6 5 4 3 3 3 3 3 2 2 2 3 4 4 5 5 6 7 7 8 8 9 10 11 12 12 13 14 15 16 17 17 16 16 18 23
22 20 19 17 15 14 12 10 8 6 5 5 5 6 6 7 8 8 7 5 6 9 10 9 8 7 6 5 4 4 3 3 3 3 2 2 3 3 4 5 5 6 6 6 7 8 8 9 10 11 10 11 12 13 14 15 16 16 16 18 19 22
20 19 17 15 13 12 10 9 7 5 4 4 4 5 6 5 5 5 4 5 9 11 10 9 9 7 6 5 4 3 3 2 2 2 2 2 3 4 5 5 5 6 6 7 8 8 9 10 11 10 9 10 12 11 12 14 16 16 17 18 19 22
20 18 17 16 14 12 10 8 7 6 6 6 6 7 7 7 7 6 5 7 11 11 10 9 8 7 7 6 4 3 3 3 3 3 3 3 4 5 5 5 5 5 7 8 8 9 10 11 11 10 8 10 12 12 13 15 16 17 17 18 19 22
20 18 17 16 14 12 11 9 8 8 8 9 9 10 11 11 10 9 8 8 10 11 10 9 8 7 7 5 4 4 4 4 5 5 5 4 5 5 5 5 5 6 8 8 8 9 10 10 10 10 10 11 13 13 14 15 14 15 16 18 20 20
19 17 16 15 14 12 11 10 9 10 10 11 12 13 15 15 14 13 12 10 10 11 10 9 8 7 6 6 5 6 6 6 6 6 5 5 5 5 6 6 6 7 8 8 7 8 9 9 10 12 12 12 12 12 13 13 13 15 17 19 19 18
18 17 15 14 12 11 10 10 11 12 13 14 14 16 17 17 17 16 13 11 12 12 10 9 8 7 6 6 6 7 7 7 7 6 6 6 5 6 6 6 6 6 7 7 7 8 9 10 11 12 12 12 12 13 14 14 15 18 18 18 18 18
19 18 16 12 10 9 9 10 11 13 15 16 17 17 18 18 17 15 12 12 13 12 10 10 9 8 8 7 7 8 8 8 7 6 6 6 6 6 6 6 6 6 7 7 8 8 8 9 11 11 11 12 13 14 14 15 16 18 18 18 19 21
Wind_Direction
153 154 159 160 159 156 152 153 150 146 141 139 138 134 129 124 123 118 114 112 107 103 99 96 86 74 64 70 68 65 64 64 71 78 80 80 90 118 141 143 106 92 95 96 101 102 100 94 86 77 70 72 23 252 216 197 174 168 341 317 305 309
155 154 158 159 162 161 155 153 148 145 140 137 136 131 127 121 125 123 112 113 127 136 108 91 94 92 74 71 66 61 61 61 66 73 82 82 81 92 105 129 162 170 144 122 126 110 101 92 83 68 43 18 346 317 311 297 204 187 316 307 301 308
155 153 159 159 162 162 157 153 149 146 139 138 138 135 130 125 129 123 113 126 135 122 95 81 84 93 80 67 61 52 52 57 59 64 83 94 89 90 89 81 75 148 228 214 212 1 114 102 83 54 24 7 355 341 331 317 264 162 315 310 314 312
151 148 154 160 160 159 157 153 151 148 143 143 140 139 137 136 139 132 138 139 115 82 81 78 59 58 50 52 48 40 47 47 46 45 57 100 101 98 95 75 55 40 27 28 11 8 355 337 17 21 1 353 354 349 344 339 345 6 334 319 318 312
141 136 145 157 156 156 156 150 149 149 148 147 143 147 148 148 147 143 147 134 118 117 126 118 35 19 19 25 23 15 38 38 40 38 28 91 102 100 108 88 62 47 37 28 14 12 357 338 340 347 335 326 332 336 343 347 351 353 329 317 312 308
132 120 131 152 155 157 156 151 152 151 150 149 147 157 159 156 149 143 151 142 144 155 155 160 50 19 0 5 14 4 22 28 26 48 39 76 75 77 109 104 86 71 50 28 11 5 356 340 335 334 323 315 315 315 324 332 328 315 301 299 300 302
125 112 122 142 149 151 146 141 144 144 147 145 138 159 168 171 167 156 167 173 164 166 160 157 151 127 4 350 351 355 30 32 17 49 54 57 49 32 33 29 48 69 51 356 344 342 334 324 321 318 312 311 310 306 307 304 290 279 277 281 284 286
121 119 121 125 133 137 131 120 120 127 129 130 139 192 210 208 184 175 185 184 167 170 167 155 166 119 36 2 344 345 20 39 30 45 59 53 50 17 333 314 332 358 338 315 309 305 297 289 286 288 293 297 297 294 288 282 277 276 278 279 281 281
137 147 135 126 132 133 135 135 128 130 136 177 209 216 233 237 198 188 194 178 175 175 167 73 72 25 26 30 28 18 6 50 49 9 40 279 287 246 238 243 263 279 273 276 279 272 265 261 258 261 271 280 285 291 290 287 287 286 284 284 285 284
151 161 155 148 146 142 153 161 152 156 176 203 208 217 234 235 208 195 180 165 180 182 199 345 24 21 20 36 48 43 30 68 43 353 266 264 284 265 255 254 247 249 253 261 276 273 263 264 262 261 270 277 277 283 290 289 290 292 291 288 288 288
160 163 161 158 161 163 167 168 160 161 176 193 201 216 230 223 201 189 175 162 148 146 148 9 51 79 41 46 58 69 58 72 62 237 240 271 294 291 271 267 257 256 262 267 286 288 278 274 271 271 275 278 276 281 289 290 289 290 291 291 291 291
168 163 160 161 168 174 170 170 170 165 171 179 185 212 233 223 193 170 172 162 112 113 101 77 96 96 74 64 75 75 53 50 65 217 277 300 294 298 266 244 254 266 269 272 285 290 287 282 280 280 278 281 281 284 289 288 287 285 286 287 288 288
164 159 162 167 168 166 164 171 176 171 168 170 168 183 225 242 204 140 153 157 110 97 80 68 81 89 92 86 83 61 29 29 24 338 342 331 285 284 278 265 264 278 284 292 299 294 290 287 286 286 285 286 287 288 290 287 284 283 285 285 285 288
159 162 168 173 167 159 163 166 164 162 152 155 166 162 181 232 341 92 133 134 109 97 87 77 82 96 92 73 72 54 36 35 23 352 348 348 317 307 306 301 301 301 303 309 311 304 297 292 290 290 291 292 292 293 293 292 291 290 292 291 291 294
163 170 171 174 170 162 165 163 154 151 142 146 156 139 142 146 85 36 66 127 122 109 99 95 99 105 76 18 14 32 39 49 38 352 337 334 328 329 324 321 318 309 308 310 309 305 299 296 295 294 292 294 296 298 297 298 298 298 298 297 300 303
169 170 170 172 167 163 161 154 144 142 144 144 139 130 125 118 101 60 5 45 105 103 96 96 103 111 108 77 34 24 17 17 8 347 336 323 316 313 309 313 311 306 307 309 307 306 304 299 295 293 294 299 303 305 306 310 313 313 311 308 312 314
168 166 166 162 158 161 156 148 141 143 148 137 127 125 119 112 104 96 53 14 63 89 101 107 117 126 130 129 114 98 41 14 341 321 305 296 299 296 296 300 302 302 301 305 310 306 296 288 288 292 299 304 305 307 313 327 337 340 336 333 335 333
163 161 160 154 151 155 153 148 143 141 144 132 123 123 121 125 129 118 110 74 70 99 119 130 138 140 145 150 151 166 179 192 220 252 259 266 279 285 290 293 295 297 297 303 303 295 288 286 291 295 299 301 303 315 330 341 351 355 351 347 349 344
160 157 157 154 150 150 148 143 139 137 137 131 127 131 134 138 139 125 115 127 166 167 153 160 162 158 169 172 172 187 208 222 231 245 258 266 272 279 284 288 293 292 291 295 290 287 287 289 293 294 299 303 309 329 336 333 335 339 333 331 335 334
158 156 157 153 151 150 144 138 137 137 138 137 136 137 138 144 147 142 150 190 220 220 197 188 188 189 201 201 198 205 219 235 248 258 265 272 277 281 285 289 292 288 283 281 284 288 289 292 293 293 297 297 308 332 321 301 282 268 291 307 321 328
157 155 155 153 151 148 144 142 143 145 144 143 141 139 144 156 157 153 182 220 234 237 232 221 213 208 212 219 221 223 227 240 253 265 271 276 281 284 288 292 294 292 290 286 289 291 291 294 295 296 293 285 307 336 318 301 263 207 313 319 323 346
156 154 154 152 150 147 148 150 151 152 148 142 143 149 162 169 167 177 204 228 237 244 248 244 236 227 228 233 236 240 241 245 254 266 276 283 286 286 286 289 290 290 291 293 296 295 296 299 300 303 302 300 313 309 213 244 217 188 345 329 316 346
156 154 153 150 149 150 154 157 152 150 146 143 151 162 174 177 188 205 220 237 244 248 253 255 252 243 242 243 245 249 251 256 263 272 283 288 289 288 287 291 296 293 291 294 287 288 300 306 304 308 310 313 321 314 285 256 216 224 301 310 300 308
155 156 156 152 153 156 160 159 150 145 145 152 160 161 168 185 207 220 233 249 252 253 257 260 259 254 253 252 252 255 259 267 272 281 290 292 290 295 300 303 308 304 307 312 290 295 321 319 316 323 327 327 327 328 322 306 298 298 302 310 309 299
156 159 160 156 157 161 162 162 156 152 157 165 164 162 175 193 209 227 244 253 256 258 261 262 264 266 263 256 255 258 263 268 272 282 285 273 281 314 322 320 328 324 327 338 340 349 358 343 340 343 344 355 1 350 337 318 315 312 308 318 319 310
157 158 161 161 162 163 164 164 163 164 170 172 163 159 178 196 210 240 258 264 261 255 253 258 263 266 263 255 251 250 249 251 254 260 223 180 302 346 338 343 349 342 338 342 345 348 357 4 8 4 15 57 60 2 329 318 320 315 310 315 319 320
159 159 160 163 166 166 163 158 160 168 169 168 160 155 173 206 237 262 272 275 271 258 250 250 241 237 238 226 206 200 200 197 180 138 114 93 24 0 353 1 359 349 343 341 342 343 351 3 14 26 48 84 94 30 330 331 341 335 324 320 321 326
161 161 160 162 164 166 162 156 160 165 158 152 151 152 171 221 250 264 270 272 270 260 235 198 191 190 183 178 173 169 169 156 123 99 78 35 17 7 1 6 2 350 340 339 345 351 356 1 11 29 43 46 37 30 18 10 11 8 352 334 328 334
158 159 161 164 162 158 158 157 159 160 153 146 148 160 192 234 253 260 267 271 261 200 180 167 167 171 164 163 164 157 148 124 99 91 75 24 16 11 3 4 1 349 345 347 355 1 6 11 19 34 40 38 35 28 21 20 21 22 15 354 341 341
156 159 160 161 157 150 151 155 156 159 161 162 174 205 232 242 251 256 262 269 238 164 159 157 156 162 161 156 148 141 132 119 102 90 74 16 12 10 5 12 11 5 4 5 10 14 19 24 31 44 43 34 31 24 14 13 17 20 17 6 352 345
157 158 156 154 153 151 153 160 165 175 189 198 213 230 236 239 247 249 249 244 190 162 156 155 154 154 154 145 135 131 123 116 98 87 74 9 16 25 30 33 27 25 28 25 28 30 31 34 42 51 44 33 29 19 10 9 11 13 11 5 359 352
157 155 156 155 157 157 158 161 166 177 190 203 215 217 214 214 222 229 219 187 169 161 158 156 152 147 142 135 132 130 120 114 106 99 90 45 42 47 49 48 39 38 41 36 36 35 33 38 49 55 42 29 27 21 18 22 20 18 16 10 4 357
163 160 163 162 162 162 162 163 168 177 185 190 196 193 181 175 189 215 212 179 165 160 158 153 149 146 141 137 137 134 126 122 116 104 97 78 67 65 64 59 51 52 52 44 38 35 37 42 48 54 40 23 28 32 32 33 29 24 16 8 5 360
168 167 171 171 172 173 174 176 180 186 186 184 183 176 172 178 192 211 214 193 172 160 154 151 150 148 144 144 140 130 122 118 110 102 98 91 82 83 80 70 65 65 60 51 43 39 43 46 46 48 37 27 36 43 39 36 29 21 13 6 5 1
174 173 177 180 182 183 182 181 182 186 185 183 183 181 183 189 196 208 215 201 172 155 151 150 148 145 144 143 135 125 117 111 105 103 102 99 97 96 91 85 79 75 67 56 49 46 49 47 42 41 37 35 42 42 35 31 23 19 16 11 7 4
181 179 182 186 188 186 184 185 184 185 185 185 186 188 192 197 203 210 207 184 159 151 151 150 146 143 141 136 129 123 115 109 105 107 110 109 107 103 99 99 93 83 72 59 53 52 53 52 45 36 32 36 38 33 28 24 20 21 21 18 15 14
184 184 186 188 188 187 193 199 196 192 188 188 190 193 196 199 201 199 181 162 154 153 153 150 145 140 136 132 127 122 116 113 112 115 118 116 114 110 108 105 95 85 75 60 57 56 53 58 52 34 28 35 35 32 27 21 22 26 25 25 26 23